Location: Ferchesar
(52.6477°N, 12.4298°E)
Time: 17:25:44
(UTC+01:00)

Tiros 1 - Pass Details

Date: 03 December 2021
Orbit: 629 x 664 km, 48.4° (Epoch: 22 January)

Event Time Altitude Azimuth Distance (km) Brightness Sun altitude
Rises 19:22:46 0° 223° (SW) 2,919 11.1 -29.9°
Reaches altitude 10° 19:25:19 10° 212° (SSW) 2,018 10.0 -30.3°
Enters shadow 19:26:15 15° 205° (SSW) 1,725 9.5 -30.4°
Maximum altitude 19:29:16 28° 153° (SSE) 1,201 - -30.9°
Drops below altitude 10° 19:33:17 10° 95° (E) 2,043 - -31.5°
Sets 19:35:52 0° 84° (E) 2,962 - -31.9°
